CAPE
3 4 6 4 4 2 4 6 3 3 2 2 2 2 2 1 1 1 1 1 1 1 1 5 5 14 6 1 2 2 1 nan nan nan nan nan nan nan nan nan nan nan nan nan nan nan nan nan nan nan nan nan nan nan nan nan nan nan nan nan nan 0 3 6 6 10 12 11 5 5 5 4 0 0 nan nan nan nan nan nan nan nan nan nan nan nan
3 4 5 4 4 4 3 6 3 3 2 2 2 2 1 1 1 1 1 0 0 1 1 5 5 13 9 2 3 3 1 0 nan nan nan nan nan nan nan nan nan nan nan nan nan nan nan nan nan nan nan nan nan nan nan nan nan nan nan nan nan nan nan 0 0 1 6 7 7 7 4 nan nan nan nan nan nan nan nan nan nan nan nan nan nan nan
3 2 3 5 5 4 3 5 5 5 2 2 2 2 2 1 1 1 1 0 0 nan 0 0 0 5 10 6 5 5 3 1 nan nan 0 nan nan nan nan nan nan nan nan nan nan nan nan nan nan nan nan nan nan nan nan nan nan nan nan nan nan nan nan nan nan nan nan 0 1 1 nan nan nan nan nan nan nan nan nan nan nan nan nan nan nan nan
3 1 3 6 6 4 3 4 6 6 3 3 3 3 2 1 0 0 0 0 0 nan nan nan nan 0 8 10 9 9 5 2 0 0 0 nan nan nan nan nan nan nan nan nan nan nan nan nan nan nan nan nan nan nan nan nan nan nan nan nan nan nan nan nan nan nan nan nan nan nan nan nan nan nan nan nan nan nan nan nan nan nan nan nan nan nan
1 1 2 4 4 3 4 4 3 3 3 3 2 2 1 0 0 0 1 0 0 0 0 nan nan nan 2 14 13 13 8 3 1 1 nan nan nan nan nan nan nan nan nan nan nan nan nan nan nan nan nan nan nan nan nan nan nan nan nan nan nan nan nan nan nan nan nan nan nan nan nan nan nan nan nan nan nan nan nan nan nan nan nan nan nan nan
0 0 1 1 1 2 3 3 1 1 1 2 1 1 0 0 0 0 0 0 0 0 0 nan nan nan nan 8 12 12 12 5 2 2 0 nan nan nan nan nan nan nan nan nan nan nan nan nan nan nan nan nan nan nan nan nan nan nan nan nan nan nan nan nan nan nan nan nan nan nan nan nan nan nan nan nan nan nan nan nan nan nan nan nan nan nan
nan 0 1 1 1 1 2 2 1 1 1 1 1 1 0 0 0 0 0 nan nan nan nan nan nan nan nan nan 14 14 10 4 2 2 nan nan nan nan nan nan nan nan nan nan nan nan nan nan nan nan nan nan nan nan nan nan nan nan nan nan nan nan nan nan nan nan nan nan nan nan nan nan nan nan nan nan nan nan nan nan nan nan nan nan nan nan
0 2 1 0 0 1 1 3 4 4 2 1 1 1 2 1 nan nan nan nan nan nan nan 0 0 0 nan nan 7 7 7 1 0 0 nan nan nan nan nan nan nan nan nan nan nan nan nan nan nan nan nan nan nan nan nan nan nan nan nan nan nan nan nan nan nan nan nan nan nan nan nan nan nan nan nan nan nan nan nan nan nan nan nan nan nan nan
0 1 2 nan nan nan 0 2 3 3 2 2 1 1 1 2 1 1 0 nan nan nan nan 0 0 0 nan nan nan nan 1 0 nan nan nan nan nan nan nan nan nan nan nan nan nan nan nan nan nan nan nan nan nan nan nan nan nan nan nan nan nan nan nan nan nan nan nan nan nan nan nan nan nan nan nan nan nan nan nan nan nan nan nan nan nan nan
1 0 1 1 1 0 0 2 1 1 nan 1 2 2 0 0 2 2 2 0 0 nan nan nan nan nan nan nan nan nan nan nan nan nan nan nan nan nan nan nan nan nan nan nan nan nan nan nan nan nan nan nan nan nan nan nan nan nan nan nan nan nan nan nan nan nan nan nan nan nan nan nan nan nan nan nan nan nan nan nan nan nan nan nan nan nan
1 1 1 2 2 0 0 0 nan nan nan 0 1 1 4 1 0 0 1 1 1 nan nan nan nan nan nan nan nan nan nan nan nan nan nan nan nan nan nan nan nan nan nan nan nan nan nan nan nan nan nan nan nan nan nan nan nan nan nan nan nan nan nan nan nan nan nan nan nan nan nan nan nan nan nan nan nan nan nan nan nan nan nan nan nan nan
0 1 1 1 1 0 nan 0 1 1 1 1 2 2 3 1 0 0 nan 0 0 nan nan nan nan nan nan nan nan nan nan nan nan nan nan nan nan nan nan nan nan nan nan nan nan nan nan nan nan nan nan nan nan nan nan nan nan nan nan nan nan nan nan nan nan nan nan nan nan nan nan nan nan nan nan nan nan nan nan nan nan nan nan nan nan nan
0 0 1 1 1 1 0 1 2 2 2 2 1 1 1 1 1 1 nan nan nan nan nan nan nan nan nan nan nan nan nan nan nan nan nan nan nan nan nan nan nan nan nan nan nan nan nan nan nan nan nan nan nan nan nan nan nan nan nan nan nan nan nan nan nan nan nan nan 0 0 0 nan nan nan nan nan nan nan nan nan nan nan nan nan nan nan
1 1 1 1 1 1 1 1 1 1 2 2 1 1 1 0 nan nan nan nan nan nan nan nan nan nan nan nan nan nan nan nan nan nan nan nan nan nan nan nan nan nan nan nan nan nan nan nan nan nan nan nan nan nan nan nan nan nan nan nan nan nan nan nan nan nan nan nan nan nan 0 0 nan nan nan nan nan nan nan nan nan nan nan nan nan nan
0 1 1 1 1 2 1 1 1 1 0 1 nan nan nan nan nan nan nan nan nan nan nan nan nan nan nan nan nan nan nan nan nan nan nan nan nan nan nan nan nan nan nan nan nan nan nan nan nan nan nan nan nan nan nan nan nan nan nan 0 0 0 nan nan nan nan nan nan nan nan 0 0 0 0 0 0 nan nan nan nan nan nan nan nan nan nan
1 0 1 1 1 1 0 0 0 0 0 nan nan nan nan nan nan nan nan nan nan nan nan 0 0 0 nan nan nan nan nan nan nan nan nan nan nan nan nan nan nan nan nan nan nan nan nan nan nan nan nan nan nan nan nan nan nan nan 0 1 1 1 nan nan nan nan nan nan nan nan 0 0 0 0 0 0 nan nan nan nan nan nan nan nan nan nan
1 1 0 0 0 0 nan 0 nan nan 1 nan nan nan nan nan nan nan 1 0 0 nan 0 0 0 0 nan nan nan nan nan nan nan nan nan nan nan nan nan nan nan nan nan nan nan nan nan nan nan nan nan nan nan nan nan nan nan 0 1 1 1 0 nan nan nan nan nan nan nan nan 0 0 0 0 0 0 nan nan nan nan nan nan nan nan nan nan
1 0 1 0 0 0 nan nan nan nan nan nan nan nan nan nan 0 0 2 0 0 0 0 0 0 0 nan nan nan nan nan nan nan nan nan nan nan nan nan nan nan nan nan nan nan nan nan nan nan nan nan nan nan nan nan 0 0 0 1 1 1 0 nan nan nan nan 0 0 1 1 0 0 0 0 0 0 0 0 nan nan nan nan nan nan nan nan
1 1 1 2 2 1 nan nan nan nan nan nan nan nan nan 0 2 2 2 0 0 nan 0 0 0 nan nan nan nan nan nan nan nan nan nan nan nan nan nan nan nan nan nan nan nan nan nan nan nan nan nan nan nan nan nan 1 1 1 1 1 1 nan nan nan nan nan 1 1 1 1 1 1 1 1 0 0 0 0 0 0 0 0 nan nan nan nan
2 1 1 2 2 1 nan nan nan nan nan nan nan nan 0 0 3 3 3 1 1 0 0 nan nan nan nan nan nan nan nan nan nan nan nan nan nan nan nan nan nan nan nan nan nan nan nan nan nan nan nan nan nan nan nan 2 2 2 1 0 0 nan nan nan nan 0 1 1 1 1 1 1 1 1 0 0 0 0 0 0 0 0 1 0 0 nan
2 2 2 2 2 0 nan nan nan nan nan nan nan nan 0 1 2 2 3 1 1 1 0 nan nan nan nan nan nan nan nan nan nan nan nan nan nan nan nan nan nan nan nan nan nan nan nan nan nan nan nan nan nan nan 1 2 2 2 1 nan nan nan nan nan nan 0 1 1 2 2 2 1 1 1 0 0 0 0 0 0 0 0 1 2 2 1
5 3 2 1 1 0 0 nan nan nan nan nan 1 1 1 1 2 2 2 1 1 1 1 0 0 nan nan nan nan nan nan nan nan nan nan nan nan nan nan nan nan nan nan nan nan nan nan nan nan nan nan nan nan nan 2 2 2 1 0 0 0 0 nan nan nan 0 1 1 1 1 1 1 0 0 0 nan nan nan nan 0 0 1 2 2 2 3
5 3 2 nan nan nan 1 0 nan nan nan nan nan nan 1 1 1 1 1 1 1 1 nan nan nan nan nan nan nan nan nan nan nan nan nan nan nan nan nan nan nan nan nan nan nan nan nan nan nan nan nan nan nan nan 3 3 3 2 1 1 1 0 0 0 0 0 0 0 0 0 0 0 0 0 nan nan nan nan nan nan nan 0 1 1 1 1
2 2 2 nan nan nan nan nan nan nan nan 1 2 2 1 0 0 0 0 nan nan nan nan nan nan nan nan nan nan nan nan nan nan nan nan nan nan nan nan nan nan nan nan nan nan nan nan nan nan nan nan nan nan nan 1 3 3 2 2 2 2 1 0 nan nan 0 0 0 0 0 0 0 nan nan nan nan nan nan nan nan nan nan 0 1 1 2
nan nan nan nan nan nan nan nan nan nan nan nan nan nan nan nan nan nan nan nan nan nan nan nan nan nan nan nan nan nan nan nan nan nan nan nan nan nan nan nan nan nan nan nan nan nan nan nan nan nan nan nan nan nan 1 3 3 3 2 2 2 1 0 nan nan nan nan nan 0 0 0 nan nan nan nan nan nan nan nan nan nan nan nan 0 0 2
nan nan nan nan nan nan nan nan nan nan nan nan nan nan nan nan nan nan nan nan nan nan nan nan nan nan nan nan nan nan nan nan nan nan nan nan nan nan nan nan nan nan nan nan nan nan nan nan nan nan nan nan nan nan 2 3 3 2 2 1 1 1 0 nan nan nan nan nan nan nan nan nan nan nan nan nan nan nan nan nan nan nan nan 0 0 0
nan nan nan nan nan nan nan nan nan nan nan nan nan nan nan nan nan nan nan nan nan nan nan nan nan nan nan nan nan nan nan nan nan nan nan nan nan nan nan nan nan nan nan nan nan nan nan nan nan nan nan nan 2 2 1 3 3 2 2 1 1 1 1 0 0 nan nan nan nan nan nan nan nan nan nan nan nan nan nan nan nan nan nan nan nan 0
nan nan nan nan nan nan nan nan nan nan nan nan nan nan nan nan nan nan nan nan nan nan nan nan nan nan nan nan nan nan nan nan nan nan nan nan nan nan nan nan nan nan nan nan nan nan nan nan nan nan nan nan nan nan nan nan nan 0 2 1 1 1 2 1 1 0 nan nan nan nan nan nan nan nan nan nan nan nan nan nan nan nan 0 1 1 3
0 1 0 0 0 0 0 1 1 1 1 0 nan nan nan nan nan nan nan nan nan nan nan nan nan nan nan nan nan nan nan nan nan nan nan nan nan nan nan nan nan nan nan nan nan nan nan nan nan nan nan nan nan nan nan nan nan nan nan 0 0 1 0 0 0 0 nan nan nan nan nan nan nan nan nan nan 0 0 0 0 0 0 1 1 1 1
0 0 1 1 1 1 1 2 3 3 3 1 nan nan nan nan nan nan nan nan nan nan nan nan nan nan nan nan nan nan nan nan nan nan nan nan nan nan nan nan nan nan nan nan nan nan nan nan nan nan nan nan nan nan nan nan nan nan nan nan nan nan nan nan nan nan nan nan nan nan nan nan nan nan nan nan 0 0 1 1 1 1 1 1 1 0
nan 0 nan 0 0 0 1 2 3 3 5 4 0 0 nan nan nan nan nan nan nan nan nan nan nan nan nan nan nan nan nan nan nan nan nan nan nan nan nan nan nan nan nan nan nan nan nan nan nan nan nan nan nan nan nan nan nan nan nan nan nan nan nan nan nan nan nan nan nan nan nan nan nan nan nan nan nan nan 0 1 1 1 0 0 0 0
nan nan nan nan nan nan nan nan nan nan nan nan nan nan nan nan nan nan nan nan nan nan nan nan nan nan nan nan nan nan nan nan nan nan nan nan nan nan nan nan nan nan nan nan nan nan nan nan nan nan nan nan nan nan nan nan nan nan nan nan nan nan nan nan nan nan nan nan nan nan nan nan nan nan nan nan nan nan nan 0 0 1 1 1 1 0
nan nan nan nan nan nan nan nan nan nan nan nan nan nan nan nan nan nan nan nan nan nan nan nan nan nan nan nan nan nan nan nan nan nan nan nan nan nan nan nan nan nan nan nan nan nan nan nan nan nan nan nan nan nan nan nan nan nan nan nan nan nan nan nan nan nan nan nan nan nan nan nan nan nan nan nan nan nan 0 1 1 2 3 3 3 1
nan nan nan nan nan nan nan nan nan nan nan nan nan nan nan nan nan nan nan nan nan nan nan nan nan nan nan nan nan nan nan nan nan nan nan nan nan nan nan nan nan nan nan nan nan nan nan nan nan nan nan nan nan nan nan nan nan nan nan nan nan nan nan nan nan nan nan nan nan nan nan nan nan nan nan nan nan nan 0 1 1 2 3 4 4 2
nan nan nan nan nan nan nan nan nan nan nan nan nan nan nan nan nan nan nan nan nan nan nan nan nan nan nan nan nan nan nan nan nan nan nan nan nan nan nan nan nan nan nan nan nan nan nan nan nan nan nan nan nan nan nan nan nan nan nan nan nan nan nan nan nan nan nan nan nan nan nan nan nan nan nan nan nan nan 0 1 1 1 2 3 3 2
nan nan nan nan nan nan nan nan nan nan nan nan nan nan nan nan nan nan nan nan nan nan nan nan nan nan nan nan nan nan nan nan nan nan nan nan nan nan nan nan nan nan nan nan nan nan nan nan nan nan nan nan nan nan nan nan nan nan nan nan nan nan nan nan nan nan nan nan nan nan nan nan nan nan nan nan nan nan nan nan nan nan 0 1 1 1
nan nan nan nan nan nan nan nan nan nan nan nan nan nan nan nan nan nan nan nan nan nan nan nan nan nan nan nan nan nan nan nan nan nan nan nan nan nan nan nan nan nan nan nan nan nan nan nan nan nan nan nan nan nan nan nan nan nan nan nan nan nan nan nan nan nan nan nan nan nan nan nan nan nan nan nan nan nan nan nan nan nan nan nan nan nan
nan nan nan nan nan nan nan nan nan nan nan nan nan nan nan nan nan nan nan nan nan nan nan nan nan nan nan nan nan nan nan nan nan nan nan nan nan nan nan nan nan nan nan nan nan nan nan nan nan nan nan nan nan nan nan nan nan nan nan nan nan nan nan nan nan nan nan nan nan nan nan nan nan nan nan nan nan nan nan nan nan nan nan nan nan nan
nan nan nan nan nan nan nan nan nan nan nan nan nan nan nan nan nan nan nan nan nan nan nan nan nan nan nan nan nan nan nan nan nan nan nan nan nan nan nan nan nan nan nan nan nan nan nan nan nan nan nan nan nan nan nan nan nan nan nan nan nan nan nan nan nan nan nan nan nan nan nan nan nan nan nan nan nan nan nan nan nan nan nan nan nan nan
nan nan nan nan nan nan nan nan nan nan nan nan nan nan nan nan nan nan nan nan nan nan nan nan nan nan nan nan nan nan 0 1 1 1 nan nan nan nan nan nan nan nan nan nan nan nan nan nan nan nan nan nan nan nan nan nan nan nan nan nan nan nan nan nan nan nan nan nan nan nan nan nan nan nan nan nan nan nan nan nan nan nan nan nan nan nan
nan nan nan nan nan nan nan nan nan nan nan nan nan nan nan nan nan nan nan nan nan nan nan nan nan nan nan nan nan nan nan 0 0 0 nan nan nan nan nan nan nan nan nan nan nan nan nan nan nan nan nan nan nan nan nan nan nan nan nan nan nan nan nan nan nan nan nan nan nan nan nan nan nan nan nan nan nan nan nan nan nan nan nan nan nan nan
0 nan nan nan nan nan nan nan nan nan nan nan nan nan nan nan nan nan nan nan nan nan nan nan nan nan nan nan nan nan nan nan nan nan 0 nan nan nan nan nan nan nan nan nan nan nan nan nan nan nan nan nan nan nan nan nan nan nan nan nan nan nan nan nan nan nan nan nan nan nan nan nan nan nan nan nan nan nan nan nan nan nan nan nan nan nan
nan nan nan nan nan nan nan nan nan nan nan nan nan nan nan nan nan nan nan nan nan nan nan nan nan nan nan nan nan nan nan nan nan nan nan nan nan nan nan nan nan nan nan nan nan nan nan nan nan nan nan nan nan nan nan nan nan nan nan nan nan nan nan nan nan nan nan nan nan nan nan nan nan nan nan nan nan nan nan nan nan nan nan nan nan nan
nan nan nan nan nan nan nan nan nan nan nan nan nan nan nan nan nan nan nan nan nan nan nan nan nan nan nan nan nan nan nan nan nan nan nan nan nan nan nan nan nan nan nan nan nan nan nan nan nan nan nan nan nan nan nan nan nan nan nan nan nan nan nan nan nan nan nan nan nan nan nan nan nan nan nan nan nan nan nan nan nan nan nan nan nan nan
nan nan nan nan nan nan nan nan nan nan nan nan nan nan nan nan nan nan nan nan nan nan nan nan nan nan nan nan nan nan nan nan nan nan nan nan 0 0 nan nan nan nan nan nan nan nan nan nan nan nan nan nan nan nan nan nan nan nan nan nan nan nan nan nan nan nan nan nan nan nan nan nan nan nan nan nan nan nan nan nan nan nan nan nan nan nan
nan nan nan nan nan nan nan nan nan nan nan nan nan nan nan nan nan nan nan nan nan nan nan nan nan nan nan nan nan nan nan nan nan nan nan nan nan nan nan nan nan nan nan nan nan nan nan nan nan nan nan nan nan nan nan nan nan nan nan nan nan nan nan nan nan nan nan nan nan nan nan nan nan nan nan nan nan nan nan nan nan nan nan nan nan nan
nan nan nan nan nan nan nan nan nan nan nan nan nan nan nan nan nan nan nan nan nan nan nan nan nan nan nan nan nan nan nan nan nan nan nan nan nan nan nan nan nan nan nan nan nan nan nan nan nan nan nan nan nan nan nan nan nan nan nan nan nan nan nan nan nan nan nan nan nan nan nan nan nan nan nan nan nan nan nan nan nan nan nan nan nan nan
nan nan nan nan nan nan nan nan nan nan nan nan nan nan nan nan nan nan nan nan nan nan nan nan nan nan nan nan nan nan nan nan nan nan nan nan nan nan nan nan nan nan nan nan nan nan nan nan nan nan nan nan nan nan nan nan nan nan nan nan nan nan nan nan nan nan nan nan nan nan nan nan nan nan nan nan nan nan nan nan nan nan nan nan nan nan
nan nan nan nan nan nan nan nan nan nan nan nan nan nan nan nan nan nan nan nan nan nan nan nan nan nan nan nan nan nan nan nan nan nan nan nan nan nan nan nan nan nan nan nan nan nan nan nan nan nan nan nan nan nan nan nan nan nan nan nan nan nan nan nan nan nan nan nan nan nan nan nan nan nan nan nan nan nan nan nan nan nan nan nan nan nan
nan nan nan nan nan nan nan nan nan nan nan nan nan nan nan nan nan nan nan nan nan nan nan nan nan nan nan nan nan nan nan nan nan nan nan nan nan nan nan nan nan nan nan nan nan nan nan nan nan nan nan nan nan nan nan nan nan nan nan nan nan nan nan nan nan nan nan nan nan nan nan nan nan nan nan nan nan nan nan nan nan nan nan nan nan nan
nan nan nan nan nan nan nan nan nan nan nan nan nan nan nan nan nan nan nan nan nan nan nan nan nan nan nan nan nan nan nan nan nan nan nan nan nan nan nan nan nan nan nan nan nan nan nan nan nan nan nan nan nan nan nan nan nan nan nan nan nan nan nan nan nan nan nan nan nan nan 0 nan nan nan nan nan nan nan nan nan nan nan nan nan nan nan
CIN
-0 -0 -0 -0 -0 -0 -0 -0 -0 -0 -0 -0 -0 -0 -0 -0 -0 -0 -0 -0 -0 -0 -0 -0 -0 -0 -0 -0 -0 -0 -0 nan nan nan nan nan nan nan nan nan nan nan nan nan nan nan nan nan nan nan nan nan nan nan nan nan nan nan nan nan nan -0 -0 -0 -0 -0 -0 -0 -0 -0 -0 -0 -0 -0 nan nan nan nan nan nan nan nan nan nan nan nan
-0 -0 -0 -0 -0 -0 -0 -0 -0 -0 -0 -0 -0 -0 -0 -0 -0 -0 -0 -0 -0 -0 -0 -0 -0 -0 -0 -0 -0 -0 -0 -0 nan nan nan nan nan nan nan nan nan nan nan nan nan nan nan nan nan nan nan nan nan nan nan nan nan nan nan nan nan nan nan -0 -0 -0 -0 -0 -0 -0 -0 nan nan nan nan nan nan nan nan nan nan nan nan nan nan nan
-0 -0 -0 -0 -0 -0 -0 -0 -0 -0 -0 -0 -0 -0 -0 -0 -0 -0 -0 -0 -0 nan -0 -0 -0 -0 -0 -0 -0 -0 -0 -0 nan nan -0 nan nan nan nan nan nan nan nan nan nan nan nan nan nan nan nan nan nan nan nan nan nan nan nan nan nan nan nan nan nan nan nan -0 -0 -0 nan nan nan nan nan nan nan nan nan nan nan nan nan nan nan nan
-0 -0 -0 -0 -0 -0 -0 -0 -0 -0 -0 -0 -0 -0 -0 -0 -0 -0 -0 -0 -0 nan nan nan nan -0 -0 -0 -0 -0 -0 -0 -0 -0 -0 nan nan nan nan nan nan nan nan nan nan nan nan nan nan nan nan nan nan nan nan nan nan nan nan nan nan nan nan nan nan nan nan nan nan nan nan nan nan nan nan nan nan nan nan nan nan nan nan nan nan nan
-0 -0 -0 -0 -0 -0 -0 -0 -0 -0 -0 -0 -0 -0 -0 -0 -0 -0 -0 -0 -0 -0 -0 nan nan nan -0 -0 -0 -0 -0 -0 -0 -0 nan nan nan nan nan nan nan nan nan nan nan nan nan nan nan nan nan nan nan nan nan nan nan nan nan nan nan nan nan nan nan nan nan nan nan nan nan nan nan nan nan nan nan nan nan nan nan nan nan nan nan nan
-0 -0 -0 -0 -0 -0 -0 -0 -0 -0 -0 -0 -0 -0 -0 -0 -0 -0 -0 -0 -0 -0 -0 nan nan nan nan -0 -0 -0 -0 -0 -0 -0 -0 nan nan nan nan nan nan nan nan nan nan nan nan nan nan nan nan nan nan nan nan nan nan nan nan nan nan nan nan nan nan nan nan nan nan nan nan nan nan nan nan nan nan nan nan nan nan nan nan nan nan nan
nan -0 -0 -0 -0 -0 -0 -0 -0 -0 -0 -0 -0 -0 -0 -0 -0 -0 -0 nan nan nan nan nan nan nan nan nan -0 -0 -0 -0 -0 -0 nan nan nan nan nan nan nan nan nan nan nan nan nan nan nan nan nan nan nan nan nan nan nan nan nan nan nan nan nan nan nan nan nan nan nan nan nan nan nan nan nan nan nan nan nan nan nan nan nan nan nan nan
-0 -0 -0 -0 -0 -0 -0 -0 -0 -0 -0 -0 -0 -0 -0 -0 nan nan nan nan nan nan nan -0 -0 -0 nan nan -0 -0 -0 -0 -0 -0 nan nan nan nan nan nan nan nan nan nan nan nan nan nan nan nan nan nan nan nan nan nan nan nan nan nan nan nan nan nan nan nan nan nan nan nan nan nan nan nan nan nan nan nan nan nan nan nan nan nan nan nan
-0 -0 -0 nan nan nan -0 -0 -0 -0 -0 -0 -0 -0 -0 -0 -0 -0 -0 nan nan nan nan -0 -0 -0 nan nan nan nan -0 -0 nan nan nan nan nan nan nan nan nan nan nan nan nan nan nan nan nan nan nan nan nan nan nan nan nan nan nan nan nan nan nan nan nan nan nan nan nan nan nan nan nan nan nan nan nan nan nan nan nan nan nan nan nan nan
-0 -0 -0 -0 -0 -0 -0 -0 -0 -0 nan -0 -0 -0 -0 -0 -0 -0 -0 -0 -0 nan nan nan nan nan nan nan nan nan nan nan nan nan nan nan nan nan nan nan nan nan nan nan nan nan nan nan nan nan nan nan nan nan nan nan nan nan nan nan nan nan nan nan nan nan nan nan nan nan nan nan nan nan nan nan nan nan nan nan nan nan nan nan nan nan
-0 -0 -0 -0 -0 -0 -0 -0 nan nan nan -0 -0 -0 -0 -0 -0 -0 -0 -0 -0 nan nan nan nan nan nan nan nan nan nan nan nan nan nan nan nan nan nan nan nan nan nan nan nan nan nan nan nan nan nan nan nan nan nan nan nan nan nan nan nan nan nan nan nan nan nan nan nan nan nan nan nan nan nan nan nan nan nan nan nan nan nan nan nan nan
-0 -0 -0 -0 -0 -0 nan -0 -0 -0 -0 -0 -0 -0 -0 -0 -0 -0 nan -0 -0 nan nan nan nan nan nan nan nan nan nan nan nan nan nan nan nan nan nan nan nan nan nan nan nan nan nan nan nan nan nan nan nan nan nan nan nan nan nan nan nan nan nan nan nan nan nan nan nan nan nan nan nan nan nan nan nan nan nan nan nan nan nan nan nan nan
-0 -0 -0 -0 -0 -0 -0 -0 -0 -0 -0 -0 -0 -0 -0 -0 -0 -0 nan nan nan nan nan nan nan nan nan nan nan nan nan nan nan nan nan nan nan nan nan nan nan nan nan nan nan nan nan nan nan nan nan nan nan nan nan nan nan nan nan nan nan nan nan nan nan nan nan nan -0 -0 -0 nan nan nan nan nan nan nan nan nan nan nan nan nan nan nan
-0 -0 -0 -0 -0 -0 -0 -0 -0 -0 -0 -0 -0 -0 -0 -0 nan nan nan nan nan nan nan nan nan nan nan nan nan nan nan nan nan nan nan nan nan nan nan nan nan nan nan nan nan nan nan nan nan nan nan nan nan nan nan nan nan nan nan nan nan nan nan nan nan nan nan nan nan nan -0 -0 nan nan nan nan nan nan nan nan nan nan nan nan nan nan
-0 -0 -0 -0 -0 -0 -0 -0 -0 -0 -0 -0 nan nan nan nan nan nan nan nan nan nan nan nan nan nan nan nan nan nan nan nan nan nan nan nan nan nan nan nan nan nan nan nan nan nan nan nan nan nan nan nan nan nan nan nan nan nan nan -0 -0 -0 nan nan nan nan nan nan nan nan -0 -0 -0 -0 -0 -0 nan nan nan nan nan nan nan nan nan nan
-0 -0 -0 -0 -0 -0 -0 -0 -0 -0 -0 nan nan nan nan nan nan nan nan nan nan nan nan -0 -0 -0 nan nan nan nan nan nan nan nan nan nan nan nan nan nan nan nan nan nan nan nan nan nan nan nan nan nan nan nan nan nan nan nan -0 -0 -0 -0 nan nan nan nan nan nan nan nan -0 -0 -0 -0 -0 -0 nan nan nan nan nan nan nan nan nan nan
-0 -0 -0 -0 -0 -0 nan -0 nan nan -0 nan nan nan nan nan nan nan -1 -0 -0 nan -0 -0 -0 -0 nan nan nan nan nan nan nan nan nan nan nan nan nan nan nan nan nan nan nan nan nan nan nan nan nan nan nan nan nan nan nan -0 -0 -0 -0 -0 nan nan nan nan nan nan nan nan -0 -0 -0 -0 -0 -0 nan nan nan nan nan nan nan nan nan nan
-0 -0 -0 -0 -0 -0 nan nan nan nan nan nan nan nan nan nan -2 -2 -0 -0 -0 -0 -0 -0 -0 -0 nan nan nan nan nan nan nan nan nan nan nan nan nan nan nan nan nan nan nan nan nan nan nan nan nan nan nan nan nan -0 -0 -0 -0 -0 -0 -0 nan nan nan nan -0 -0 -0 -0 -0 -0 -0 -0 -0 -0 -0 -0 nan nan nan nan nan nan nan nan
-0 -0 -0 -0 -0 -0 nan nan nan nan nan nan nan nan nan -1 -1 -1 -0 -0 -0 nan -0 -0 -0 nan nan nan nan nan nan nan nan nan nan nan nan nan nan nan nan nan nan nan nan nan nan nan nan nan nan nan nan nan nan -0 -0 -0 -0 -0 -0 nan nan nan nan nan -0 -0 -0 -0 -0 -0 -0 -0 -0 -0 -0 -0 -0 -0 -0 -0 nan nan nan nan
-0 -0 -0 -0 -0 -0 nan nan nan nan nan nan nan nan -1 -1 -0 -0 -0 -0 -0 -0 -0 nan nan nan nan nan nan nan nan nan nan nan nan nan nan nan nan nan nan nan nan nan nan nan nan nan nan nan nan nan nan nan nan -0 -0 -0 -0 -0 -0 nan nan nan nan -1 -0 -0 -0 -0 -0 -0 -0 -0 -0 -0 -0 -0 -0 -0 -0 -0 -0 -0 -0 nan
-0 -0 -0 -0 -0 -0 nan nan nan nan nan nan nan nan -0 -0 -0 -0 -0 -0 -0 -0 -0 nan nan nan nan nan nan nan nan nan nan nan nan nan nan nan nan nan nan nan nan nan nan nan nan nan nan nan nan nan nan nan -0 -0 -0 -0 -0 nan nan nan nan nan nan -0 -0 -0 -0 -0 -0 -0 -0 -0 -0 -0 -0 -0 -0 -0 -0 -0 -0 -0 -0 -0
-0 -0 -0 -0 -0 -0 -0 nan nan nan nan nan -0 -0 -0 -0 -0 -0 -0 -0 -0 -0 -0 -0 -0 nan nan nan nan nan nan nan nan nan nan nan nan nan nan nan nan nan nan nan nan nan nan nan nan nan nan nan nan nan -0 -0 -0 -0 -0 -0 -0 -0 nan nan nan -0 -0 -0 -0 -0 -0 -0 -0 -0 -0 nan nan nan nan -0 -0 -0 -0 -0 -0 -0
-0 -0 -0 nan nan nan -0 -0 nan nan nan nan nan nan -0 -0 -0 -0 -0 -0 -0 -0 nan nan nan nan nan nan nan nan nan nan nan nan nan nan nan nan nan nan nan nan nan nan nan nan nan nan nan nan nan nan nan nan -0 -0 -0 -0 -0 -0 -0 -0 -0 -0 -0 -0 -0 -0 -0 -0 -0 -0 -0 -0 nan nan nan nan nan nan nan -0 -0 -0 -0 -0
-0 -0 -0 nan nan nan nan nan nan nan nan -0 -0 -0 -1 -0 -0 -0 -0 nan nan nan nan nan nan nan nan nan nan nan nan nan nan nan nan nan nan nan nan nan nan nan nan nan nan nan nan nan nan nan nan nan nan nan -0 -0 -0 -0 -0 -0 -0 -0 -0 nan nan -0 -0 -0 -0 -0 -0 -0 nan nan nan nan nan nan nan nan nan nan -0 -0 -0 -0
nan nan nan nan nan nan nan nan nan nan nan nan nan nan nan nan nan nan nan nan nan nan nan nan nan nan nan nan nan nan nan nan nan nan nan nan nan nan nan nan nan nan nan nan nan nan nan nan nan nan nan nan nan nan -2 -0 -0 -0 -0 -0 -0 -0 -0 nan nan nan nan nan -0 -0 -0 nan nan nan nan nan nan nan nan nan nan nan nan -0 -0 -0
nan nan nan nan nan nan nan nan nan nan nan nan nan nan nan nan nan nan nan nan nan nan nan nan nan nan nan nan nan nan nan nan nan nan nan nan nan nan nan nan nan nan nan nan nan nan nan nan nan nan nan nan nan nan -3 -0 -0 -0 -0 -0 -0 -0 -0 nan nan nan nan nan nan nan nan nan nan nan nan nan nan nan nan nan nan nan nan -0 -0 -0
nan nan nan nan nan nan nan nan nan nan nan nan nan nan nan nan nan nan nan nan nan nan nan nan nan nan nan nan nan nan nan nan nan nan nan nan nan nan nan nan nan nan nan nan nan nan nan nan nan nan nan nan -0 -0 -0 -3 -3 -0 -0 -0 -0 -0 -0 -0 -0 nan nan nan nan nan nan nan nan nan nan nan nan nan nan nan nan nan nan nan nan -0
nan nan nan nan nan nan nan nan nan nan nan nan nan nan nan nan nan nan nan nan nan nan nan nan nan nan nan nan nan nan nan nan nan nan nan nan nan nan nan nan nan nan nan nan nan nan nan nan nan nan nan nan nan nan nan nan nan -1 -0 -0 -0 -0 -0 -0 -0 -0 nan nan nan nan nan nan nan nan nan nan nan nan nan nan nan nan -0 -0 -0 -0
-0 -0 -0 -0 -0 -0 -0 -0 -0 -0 -0 -0 nan nan nan nan nan nan nan nan nan nan nan nan nan nan nan nan nan nan nan nan nan nan nan nan nan nan nan nan nan nan nan nan nan nan nan nan nan nan nan nan nan nan nan nan nan nan nan -0 -0 -0 -0 -0 -0 -0 nan nan nan nan nan nan nan nan nan nan -0 -0 -0 -0 -0 -0 -0 -0 -0 -0
-0 -0 -0 -0 -0 -0 -0 -0 -0 -0 -0 -0 nan nan nan nan nan nan nan nan nan nan nan nan nan nan nan nan nan nan nan nan nan nan nan nan nan nan nan nan nan nan nan nan nan nan nan nan nan nan nan nan nan nan nan nan nan nan nan nan nan nan nan nan nan nan nan nan nan nan nan nan nan nan nan nan -0 -0 -0 -0 -0 -0 -0 -0 -0 -0
nan -0 nan -0 -0 -0 -0 -0 -0 -0 -0 -0 -0 -0 nan nan nan nan nan nan nan nan nan nan nan nan nan nan nan nan nan nan nan nan nan nan nan nan nan nan nan nan nan nan nan nan nan nan nan nan nan nan nan nan nan nan nan nan nan nan nan nan nan nan nan nan nan nan nan nan nan nan nan nan nan nan nan nan -0 -0 -0 -0 -0 -0 -0 -0
nan nan nan nan nan nan nan nan nan nan nan nan nan nan nan nan nan nan nan nan nan nan nan nan nan nan nan nan nan nan nan nan nan nan nan nan nan nan nan nan nan nan nan nan nan nan nan nan nan nan nan nan nan nan nan nan nan nan nan nan nan nan nan nan nan nan nan nan nan nan nan nan nan nan nan nan nan nan nan -0 -0 -0 -0 -0 -0 -0
nan nan nan nan nan nan nan nan nan nan nan nan nan nan nan nan nan nan nan nan nan nan nan nan nan nan nan nan nan nan nan nan nan nan nan nan nan nan nan nan nan nan nan nan nan nan nan nan nan nan nan nan nan nan nan nan nan nan nan nan nan nan nan nan nan nan nan nan nan nan nan nan nan nan nan nan nan nan -0 -0 -0 -0 -0 -0 -0 -0
nan nan nan nan nan nan nan nan nan nan nan nan nan nan nan nan nan nan nan nan nan nan nan nan nan nan nan nan nan nan nan nan nan nan nan nan nan nan nan nan nan nan nan nan nan nan nan nan nan nan nan nan nan nan nan nan nan nan nan nan nan nan nan nan nan nan nan nan nan nan nan nan nan nan nan nan nan nan -0 -0 -0 -0 -0 -0 -0 -0
nan nan nan nan nan nan nan nan nan nan nan nan nan nan nan nan nan nan nan nan nan nan nan nan nan nan nan nan nan nan nan nan nan nan nan nan nan nan nan nan nan nan nan nan nan nan nan nan nan nan nan nan nan nan nan nan nan nan nan nan nan nan nan nan nan nan nan nan nan nan nan nan nan nan nan nan nan nan -0 -0 -0 -0 -0 -0 -0 -0
nan nan nan nan nan nan nan nan nan nan nan nan nan nan nan nan nan nan nan nan nan nan nan nan nan nan nan nan nan nan nan nan nan nan nan nan nan nan nan nan nan nan nan nan nan nan nan nan nan nan nan nan nan nan nan nan nan nan nan nan nan nan nan nan nan nan nan nan nan nan nan nan nan nan nan nan nan nan nan nan nan nan -0 -0 -0 -0
nan nan nan nan nan nan nan nan nan nan nan nan nan nan nan nan nan nan nan nan nan nan nan nan nan nan nan nan nan nan nan nan nan nan nan nan nan nan nan nan nan nan nan nan nan nan nan nan nan nan nan nan nan nan nan nan nan nan nan nan nan nan nan nan nan nan nan nan nan nan nan nan nan nan nan nan nan nan nan nan nan nan nan nan nan nan
nan nan nan nan nan nan nan nan nan nan nan nan nan nan nan nan nan nan nan nan nan nan nan nan nan nan nan nan nan nan nan nan nan nan nan nan nan nan nan nan nan nan nan nan nan nan nan nan nan nan nan nan nan nan nan nan nan nan nan nan nan nan nan nan nan nan nan nan nan nan nan nan nan nan nan nan nan nan nan nan nan nan nan nan nan nan
nan nan nan nan nan nan nan nan nan nan nan nan nan nan nan nan nan nan nan nan nan nan nan nan nan nan nan nan nan nan nan nan nan nan nan nan nan nan nan nan nan nan nan nan nan nan nan nan nan nan nan nan nan nan nan nan nan nan nan nan nan nan nan nan nan nan nan nan nan nan nan nan nan nan nan nan nan nan nan nan nan nan nan nan nan nan
nan nan nan nan nan nan nan nan nan nan nan nan nan nan nan nan nan nan nan nan nan nan nan nan nan nan nan nan nan nan -0 -0 -0 -0 nan nan nan nan nan nan nan nan nan nan nan nan nan nan nan nan nan nan nan nan nan nan nan nan nan nan nan nan nan nan nan nan nan nan nan nan nan nan nan nan nan nan nan nan nan nan nan nan nan nan nan nan
nan nan nan nan nan nan nan nan nan nan nan nan nan nan nan nan nan nan nan nan nan nan nan nan nan nan nan nan nan nan nan -0 -0 -0 nan nan nan nan nan nan nan nan nan nan nan nan nan nan nan nan nan nan nan nan nan nan nan nan nan nan nan nan nan nan nan nan nan nan nan nan nan nan nan nan nan nan nan nan nan nan nan nan nan nan nan nan
-0 nan nan nan nan nan nan nan nan nan nan nan nan nan nan nan nan nan nan nan nan nan nan nan nan nan nan nan nan nan nan nan nan nan -0 nan nan nan nan nan nan nan nan nan nan nan nan nan nan nan nan nan nan nan nan nan nan nan nan nan nan nan nan nan nan nan nan nan nan nan nan nan nan nan nan nan nan nan nan nan nan nan nan nan nan nan
nan nan nan nan nan nan nan nan nan nan nan nan nan nan nan nan nan nan nan nan nan nan nan nan nan nan nan nan nan nan nan nan nan nan nan nan nan nan nan nan nan nan nan nan nan nan nan nan nan nan nan nan nan nan nan nan nan nan nan nan nan nan nan nan nan nan nan nan nan nan nan nan nan nan nan nan nan nan nan nan nan nan nan nan nan nan
nan nan nan nan nan nan nan nan nan nan nan nan nan nan nan nan nan nan nan nan nan nan nan nan nan nan nan nan nan nan nan nan nan nan nan nan nan nan nan nan nan nan nan nan nan nan nan nan nan nan nan nan nan nan nan nan nan nan nan nan nan nan nan nan nan nan nan nan nan nan nan nan nan nan nan nan nan nan nan nan nan nan nan nan nan nan
nan nan nan nan nan nan nan nan nan nan nan nan nan nan nan nan nan nan nan nan nan nan nan nan nan nan nan nan nan nan nan nan nan nan nan nan -0 -0 nan nan nan nan nan nan nan nan nan nan nan nan nan nan nan nan nan nan nan nan nan nan nan nan nan nan nan nan nan nan nan nan nan nan nan nan nan nan nan nan nan nan nan nan nan nan nan nan
nan nan nan nan nan nan nan nan nan nan nan nan nan nan nan nan nan nan nan nan nan nan nan nan nan nan nan nan nan nan nan nan nan nan nan nan nan nan nan nan nan nan nan nan nan nan nan nan nan nan nan nan nan nan nan nan nan nan nan nan nan nan nan nan nan nan nan nan nan nan nan nan nan nan nan nan nan nan nan nan nan nan nan nan nan nan
nan nan nan nan nan nan nan nan nan nan nan nan nan nan nan nan nan nan nan nan nan nan nan nan nan nan nan nan nan nan nan nan nan nan nan nan nan nan nan nan nan nan nan nan nan nan nan nan nan nan nan nan nan nan nan nan nan nan nan nan nan nan nan nan nan nan nan nan nan nan nan nan nan nan nan nan nan nan nan nan nan nan nan nan nan nan
nan nan nan nan nan nan nan nan nan nan nan nan nan nan nan nan nan nan nan nan nan nan nan nan nan nan nan nan nan nan nan nan nan nan nan nan nan nan nan nan nan nan nan nan nan nan nan nan nan nan nan nan nan nan nan nan nan nan nan nan nan nan nan nan nan nan nan nan nan nan nan nan nan nan nan nan nan nan nan nan nan nan nan nan nan nan
nan nan nan nan nan nan nan nan nan nan nan nan nan nan nan nan nan nan nan nan nan nan nan nan nan nan nan nan nan nan nan nan nan nan nan nan nan nan nan nan nan nan nan nan nan nan nan nan nan nan nan nan nan nan nan nan nan nan nan nan nan nan nan nan nan nan nan nan nan nan nan nan nan nan nan nan nan nan nan nan nan nan nan nan nan nan
nan nan nan nan nan nan nan nan nan nan nan nan nan nan nan nan nan nan nan nan nan nan nan nan nan nan nan nan nan nan nan nan nan nan nan nan nan nan nan nan nan nan nan nan nan nan nan nan nan nan nan nan nan nan nan nan nan nan nan nan nan nan nan nan nan nan nan nan nan nan nan nan nan nan nan nan nan nan nan nan nan nan nan nan nan nan
nan nan nan nan nan nan nan nan nan nan nan nan nan nan nan nan nan nan nan nan nan nan nan nan nan nan nan nan nan nan nan nan nan nan nan nan nan nan nan nan nan nan nan nan nan nan nan nan nan nan nan nan nan nan nan nan nan nan nan nan nan nan nan nan nan nan nan nan nan nan -0 nan nan nan nan nan nan nan nan nan nan nan nan nan nan nan
Wind_Speed
2 2 3 4 4 4 4 5 5 5 4 4 3 3 3 3 3 3 4 3 3 3 3 3 4 6 8 10 11 12 12 12 11 11 11 10 10 10 9 9 9 8 8 8 8 7 7 7 7 7 7 8 8 7 7 7 7 7 7 7 6 6 6 6 6 6 6 6 6 6 6 6 6 6 5 5 5 5 5 5 5 5 5 5 5 5
2 2 2 4 4 4 3 5 5 5 4 4 4 3 3 3 3 3 3 3 3 3 2 2 3 5 7 8 10 11 12 11 11 11 11 10 10 9 9 9 8 8 8 8 7 7 6 6 6 7 7 7 7 7 7 7 7 7 7 7 6 6 6 6 6 6 6 7 7 6 6 6 6 5 5 5 5 5 5 5 5 5 5 5 5 5
2 2 2 3 4 3 3 4 5 5 5 5 4 4 4 4 3 2 2 2 2 2 2 2 2 3 5 7 9 11 11 11 11 11 11 10 10 9 9 9 8 8 8 7 7 6 6 6 6 6 7 7 7 7 6 6 6 6 6 6 6 6 6 6 6 6 6 6 6 6 6 5 5 5 4 4 4 4 4 4 4 4 4 4 5 5
3 2 3 3 3 3 3 4 4 4 4 4 4 4 4 3 3 2 2 2 2 2 2 2 2 1 3 4 7 10 11 11 11 11 11 10 10 9 9 8 8 8 7 7 6 6 5 5 6 6 7 7 7 6 6 6 5 5 5 5 5 5 5 5 5 5 5 5 5 5 4 4 4 4 4 4 4 4 4 4 4 4 4 4 4 4
3 3 3 3 2 2 2 3 3 4 4 4 4 4 4 3 2 2 2 2 2 2 2 2 2 2 1 2 6 9 11 11 11 11 11 10 10 9 9 8 8 7 7 6 6 5 5 5 5 6 6 6 6 6 6 5 5 5 5 4 4 4 4 4 4 4 4 4 4 3 3 3 3 3 4 4 4 4 3 3 3 3 3 3 4 4
3 3 3 3 2 2 2 2 3 3 3 3 4 4 3 3 2 2 2 2 2 2 2 2 2 2 1 1 5 8 10 11 11 11 10 10 10 9 9 8 8 7 7 6 6 5 5 5 5 5 6 6 6 6 5 5 5 4 4 4 3 3 3 3 3 3 3 3 3 3 3 3 3 3 3 3 3 3 3 3 2 2 2 3 3 3
3 3 3 2 2 2 2 2 3 3 3 3 3 3 3 2 2 2 2 2 2 2 2 2 2 2 2 0 4 8 10 10 11 11 10 10 9 9 9 8 8 7 6 6 5 5 5 5 5 5 5 5 5 5 5 5 4 4 4 4 3 3 3 3 3 2 2 2 2 2 3 3 3 3 3 3 3 3 3 2 2 2 2 2 2 3
3 3 3 3 2 2 2 2 3 3 4 3 3 3 3 2 2 2 2 2 2 1 2 2 2 2 2 1 3 6 8 8 9 9 9 9 9 9 8 8 8 7 6 6 5 5 4 4 4 5 5 5 5 5 5 4 4 4 4 4 3 3 3 3 3 2 2 2 2 2 2 3 3 3 3 3 3 3 3 2 2 2 2 2 2 2
4 4 4 3 3 3 2 2 3 3 4 4 4 4 3 3 3 2 2 2 1 1 1 2 2 2 2 1 2 4 6 6 6 6 6 6 7 7 7 7 7 7 6 5 5 4 4 4 4 4 4 4 4 4 4 4 4 4 4 4 4 3 3 3 3 2 2 2 2 2 2 2 3 3 3 3 3 3 3 2 2 2 2 2 2 2
4 4 4 3 3 3 3 3 3 2 2 3 3 3 4 4 4 3 3 2 1 1 1 2 2 2 1 1 2 4 5 5 5 5 5 5 6 6 6 6 6 6 5 5 4 4 4 3 4 4 4 4 4 4 3 3 3 3 3 3 3 3 3 3 3 3 2 2 2 2 2 2 2 3 3 3 3 3 2 2 2 2 2 2 2 2
3 3 3 3 2 2 2 3 3 2 2 2 2 2 3 4 5 5 4 4 3 2 1 1 2 2 2 2 2 3 4 5 5 5 6 6 6 6 6 6 6 5 5 5 4 4 4 3 3 3 3 3 3 3 2 2 2 2 2 2 3 3 3 3 2 2 2 2 2 2 2 2 2 3 3 3 3 3 2 2 2 2 2 3 3 3
3 3 3 3 2 2 2 2 2 2 2 2 2 3 3 4 4 5 5 5 5 4 3 2 1 1 1 1 2 3 3 4 3 3 3 4 4 4 4 4 4 4 4 4 4 4 4 3 3 3 2 2 2 2 2 1 1 1 2 2 2 2 2 2 2 2 2 2 2 2 2 2 3 3 3 3 3 3 3 2 2 2 3 3 4 4
3 2 2 3 3 3 2 3 3 3 3 4 5 5 5 5 4 4 4 5 5 5 4 3 2 1 1 1 1 2 3 3 3 3 2 2 2 2 2 2 2 2 2 2 3 3 3 3 3 2 2 2 2 1 1 1 1 1 1 1 1 1 1 1 1 1 1 1 1 2 2 2 3 3 3 4 4 3 3 3 3 3 3 3 4 5
3 3 3 3 3 3 3 4 4 5 5 6 6 5 5 4 4 3 3 4 4 4 4 4 3 2 1 0 0 0 2 3 3 3 2 2 2 1 1 1 2 1 1 1 2 2 2 2 1 1 1 1 1 1 1 1 1 1 1 0 0 0 1 1 1 1 1 1 1 1 2 2 3 3 4 4 4 4 3 3 3 3 3 4 4 5
4 4 4 4 4 4 4 5 5 6 6 6 4 3 3 4 4 3 3 4 4 4 4 4 3 3 2 1 1 1 1 3 3 3 3 2 1 1 1 1 1 1 1 1 2 2 2 1 1 1 2 2 1 1 1 1 1 1 1 1 1 1 1 0 0 0 0 0 0 1 1 2 2 3 3 4 4 4 3 3 3 3 3 4 4 5
4 4 4 5 5 5 5 5 5 5 5 4 3 3 4 5 5 4 4 5 4 4 4 4 4 3 2 2 2 2 2 3 3 3 3 3 2 1 0 1 1 2 2 1 2 2 2 1 1 1 1 1 1 1 2 1 1 1 2 2 1 1 1 0 0 1 1 1 1 1 1 2 2 3 3 3 3 3 3 3 3 3 3 3 4 4
4 4 4 4 5 5 5 5 5 5 5 4 3 4 4 5 5 5 5 5 4 4 4 4 4 4 3 3 3 3 3 3 3 3 3 3 2 1 0 1 1 2 2 2 2 2 2 1 1 1 1 1 1 2 2 2 1 1 2 2 2 1 1 0 1 1 1 2 2 2 2 2 2 2 3 3 3 3 3 2 2 2 2 2 3 4
4 4 4 4 4 4 5 5 5 4 4 4 3 3 3 4 4 5 5 5 5 5 5 5 4 4 4 4 4 5 4 3 3 3 3 3 2 2 0 1 1 1 2 2 2 2 1 1 1 1 1 1 2 3 3 2 1 1 2 2 2 1 1 0 1 1 1 2 2 2 2 2 2 2 2 2 2 2 2 2 2 2 2 2 2 3
4 4 4 4 4 4 4 4 4 4 4 4 4 4 4 4 4 4 5 5 5 6 6 5 4 4 3 3 4 5 4 3 3 3 3 3 2 2 1 1 1 2 2 2 2 2 2 1 1 1 1 2 3 3 3 2 2 2 2 2 2 2 1 1 1 1 1 2 3 3 3 3 2 2 2 2 2 2 2 2 2 2 1 1 1 2
4 4 4 4 4 3 4 4 5 5 5 5 5 5 5 5 5 5 5 5 5 5 5 4 4 4 2 3 4 4 3 3 3 3 3 2 3 3 2 2 2 2 2 2 2 2 2 1 1 1 1 2 3 3 4 3 2 2 2 2 2 2 1 1 1 1 1 2 2 3 3 3 2 2 2 2 2 2 2 2 2 2 1 1 1 1
4 4 4 4 3 3 3 4 5 6 6 6 6 6 5 5 5 5 5 5 5 5 5 5 4 2 2 3 3 3 3 3 4 3 2 2 2 2 2 2 2 2 2 2 2 2 2 1 1 1 1 2 3 3 3 3 2 3 3 3 3 2 2 2 1 1 1 2 2 3 3 2 2 2 2 2 2 1 1 1 1 1 1 1 1 1
4 4 4 4 4 3 3 4 5 7 8 7 7 6 5 6 6 6 6 5 5 5 5 3 2 3 3 3 3 3 2 2 3 3 2 2 2 3 2 2 2 2 2 2 3 2 2 2 1 1 1 2 3 3 3 3 3 3 3 3 3 3 2 2 2 1 2 2 2 2 2 2 2 2 2 2 1 1 1 1 1 1 1 1 1 1
4 3 3 3 2 2 1 3 5 6 7 7 7 6 5 6 6 6 6 6 5 4 3 3 4 4 3 3 3 2 1 0 1 1 2 3 3 3 3 2 2 2 2 2 2 2 2 2 1 1 1 2 3 4 4 3 4 4 4 4 3 3 3 2 2 2 2 2 2 2 2 2 2 2 2 1 1 1 1 1 1 1 1 1 1 1
3 2 1 1 2 1 1 3 4 5 6 5 4 3 3 3 3 3 3 4 4 4 4 4 4 3 3 3 3 2 1 0 1 1 2 2 2 2 2 2 2 2 2 2 2 2 2 2 2 2 2 1 3 4 4 4 4 4 4 4 4 3 3 2 2 2 2 2 2 2 2 2 2 2 2 1 1 1 0 0 0 0 0 0 1 1
1 1 1 1 2 2 2 3 5 5 6 5 4 4 3 4 4 4 4 4 4 5 5 5 4 3 3 3 2 2 2 1 1 1 2 1 2 2 2 2 2 2 2 2 2 1 2 2 2 2 2 1 2 3 4 4 4 4 4 4 4 3 3 3 3 2 2 2 2 2 2 2 2 1 1 1 1 1 1 0 0 0 0 1 1 1
2 2 2 2 3 4 4 5 7 8 8 7 6 5 5 5 5 5 4 4 4 5 5 5 4 3 3 2 2 2 2 2 1 2 1 1 2 2 2 2 2 2 2 3 2 1 2 2 2 3 2 1 1 1 2 3 4 4 4 4 3 3 3 3 3 3 2 2 2 2 2 1 1 1 1 1 1 1 1 1 1 1 1 1 1 0
5 4 4 5 6 6 7 8 9 10 10 10 9 7 6 6 5 5 5 5 5 6 6 5 5 4 3 2 2 2 3 2 2 2 2 1 2 2 2 2 2 2 2 2 2 1 1 1 2 3 3 2 2 2 3 3 2 3 3 3 3 3 3 3 3 3 2 2 2 1 1 1 1 1 1 1 1 1 1 1 1 1 1 1 1 1
8 7 7 7 7 8 8 9 10 11 11 12 12 11 8 6 6 5 5 5 6 6 5 5 5 4 4 3 3 2 2 3 2 2 2 1 1 2 2 2 2 2 2 2 2 1 1 1 2 2 3 2 2 3 4 3 3 3 3 3 3 3 3 2 2 2 2 1 1 1 1 1 1 1 1 1 2 2 2 2 2 2 2 2 2 2
9 9 9 9 9 9 9 9 10 10 11 12 12 10 7 5 5 5 5 6 6 5 5 5 4 4 3 3 3 2 2 3 3 3 2 2 1 2 2 2 2 2 2 2 2 2 2 2 2 2 2 2 2 2 2 2 3 3 3 3 3 3 3 3 2 2 1 1 0 0 0 1 1 1 1 1 2 2 2 2 3 3 3 3 2 2
8 8 9 9 9 8 8 8 9 9 11 11 10 7 4 3 3 4 5 5 5 5 5 4 4 3 3 3 3 2 2 3 4 4 3 2 2 2 3 3 3 3 2 2 2 2 2 2 2 2 3 2 2 2 2 1 1 1 2 2 2 3 3 3 2 2 1 1 1 1 1 1 1 1 1 2 2 2 2 3 3 3 3 2 2 2
6 6 6 6 6 6 6 6 7 7 8 7 6 4 2 1 2 3 4 5 5 5 5 4 4 4 4 3 3 3 2 3 4 5 4 3 2 2 3 3 3 2 2 2 2 2 2 2 3 3 3 3 2 2 2 1 1 1 1 1 1 1 2 2 1 1 1 1 2 2 2 2 2 2 2 2 3 3 3 3 4 4 3 2 2 2
4 4 4 4 4 4 4 5 5 5 5 4 4 3 3 3 2 2 3 3 3 3 4 4 4 4 4 3 3 2 1 3 4 5 5 3 2 2 3 3 3 2 2 2 2 1 1 2 2 3 3 3 3 3 2 2 1 1 1 1 1 1 1 0 1 1 2 2 2 2 2 2 2 3 3 3 3 4 4 4 4 4 3 3 2 2
4 4 4 4 4 4 4 4 4 4 4 3 3 3 3 3 3 3 2 2 1 2 3 3 4 4 4 3 2 1 2 2 4 6 6 3 2 2 2 3 3 3 2 1 2 2 1 1 2 2 3 3 3 3 3 2 2 1 1 2 2 2 1 1 2 2 3 3 3 2 2 2 2 3 3 3 4 4 4 5 5 5 4 3 3 2
4 4 4 4 4 4 4 4 4 4 4 3 3 3 3 3 3 3 3 3 2 2 2 2 3 3 3 3 2 2 2 3 4 6 6 4 2 2 3 3 4 4 3 2 1 1 1 1 1 2 2 2 3 3 3 3 2 2 1 2 2 2 1 1 2 2 2 2 3 3 3 2 3 3 3 3 4 4 5 5 5 5 5 4 3 2
4 4 4 4 4 4 4 4 4 4 4 4 4 3 3 3 3 3 3 3 3 3 3 2 2 1 2 2 2 2 2 3 5 6 6 4 3 2 3 3 4 4 4 3 2 2 1 1 2 2 2 2 2 3 3 3 2 2 2 2 2 2 1 1 1 2 2 2 2 2 2 2 3 3 3 3 3 4 4 4 5 5 5 4 4 3
4 4 4 4 4 4 4 4 4 4 4 4 3 3 3 3 4 4 3 3 4 4 4 3 3 2 1 0 0 1 2 4 5 6 6 4 3 2 3 3 4 4 4 3 3 3 2 2 2 2 2 2 2 2 3 3 2 2 2 2 2 2 2 1 1 2 2 2 2 2 2 2 2 2 2 2 2 3 3 4 4 5 5 5 5 4
4 4 4 4 4 4 4 4 4 4 4 3 3 3 3 3 4 4 4 4 4 4 4 4 4 4 4 3 2 2 3 4 5 6 6 3 2 2 2 3 3 4 4 3 3 3 2 2 2 2 2 2 2 2 2 3 3 3 3 3 3 3 2 2 2 2 2 3 3 2 2 2 2 2 2 2 2 2 3 4 4 4 5 5 5 5
4 4 4 4 4 4 4 4 4 4 3 3 3 3 3 4 4 4 4 4 4 4 4 4 4 4 6 5 5 4 3 4 5 5 5 3 2 1 2 2 3 3 3 3 3 3 3 3 3 3 2 2 2 2 2 3 3 3 3 3 3 3 3 2 2 2 3 3 3 3 2 2 2 2 2 2 2 3 3 4 4 4 4 4 5 6
4 4 4 4 4 4 4 4 4 4 3 3 3 3 3 4 4 4 4 4 4 4 4 4 4 4 5 5 5 5 5 4 4 4 4 2 1 1 2 3 3 3 2 2 2 2 3 2 2 2 2 2 2 2 2 2 2 3 3 2 3 3 3 3 3 3 3 3 3 3 3 2 2 2 2 2 3 3 3 3 3 3 3 3 4 5
4 4 4 4 3 3 3 4 4 4 4 4 4 4 3 3 3 4 4 4 4 4 4 4 4 3 4 4 4 5 4 4 3 3 3 2 1 0 1 2 3 3 2 2 1 2 2 2 2 2 1 1 2 2 2 2 2 2 2 2 2 3 3 3 3 3 3 3 3 3 3 2 3 3 3 3 3 3 3 3 2 2 3 3 3 3
4 4 4 4 3 3 3 4 4 4 4 4 3 3 3 3 3 3 3 3 3 3 2 3 3 3 3 3 4 4 4 3 3 3 2 2 2 1 1 2 2 3 3 2 2 1 2 2 1 1 1 1 1 1 1 2 2 3 3 2 2 2 2 3 3 3 3 3 3 3 3 3 3 3 3 4 3 3 3 2 2 2 2 2 3 3
5 4 4 4 3 3 3 3 3 3 3 3 3 3 3 3 3 3 3 3 2 2 2 2 3 3 3 3 3 3 3 3 3 2 2 2 2 2 1 2 2 2 2 2 2 2 1 1 1 1 1 1 1 1 1 1 2 3 3 2 2 1 1 2 3 3 3 3 3 3 4 4 4 4 4 4 3 3 2 3 3 3 3 3 3 3
4 4 4 4 4 4 4 4 4 3 3 3 3 3 3 2 3 3 3 3 3 3 3 3 3 3 3 3 3 3 3 3 2 2 2 1 1 1 1 2 2 2 2 2 2 2 2 1 1 1 1 1 1 1 2 2 2 2 3 3 2 2 2 2 2 3 3 3 3 4 4 4 4 3 3 3 3 2 3 3 4 4 4 4 4 3
3 3 4 4 3 3 3 3 3 3 3 3 3 3 2 2 3 3 3 3 3 4 3 3 3 3 3 3 3 3 3 3 3 3 3 2 1 1 1 1 1 2 2 2 2 2 2 2 2 2 1 1 1 2 2 2 2 3 3 3 3 3 3 1 2 3 3 3 3 4 4 4 3 3 3 3 3 3 3 3 4 4 5 5 4 4
4 4 3 3 3 3 3 3 3 3 3 3 3 3 3 3 3 3 3 3 4 4 4 3 3 3 3 3 3 3 3 3 3 3 3 3 2 2 0 0 0 1 1 2 2 2 2 2 2 2 2 2 2 3 3 3 3 3 3 4 4 4 4 2 2 2 3 3 3 4 4 3 3 3 3 3 4 4 4 4 4 4 4 5 4 4
4 4 4 3 3 4 4 4 4 3 3 3 3 3 3 3 2 3 3 3 4 4 4 4 3 3 3 3 3 3 4 4 3 3 3 3 3 3 2 1 1 1 1 1 1 1 2 2 2 2 2 2 3 3 4 4 3 3 3 3 4 4 4 3 3 3 3 3 3 3 4 3 3 3 3 4 4 4 4 4 5 5 5 5 5 5
4 4 4 4 4 4 4 4 4 4 4 4 3 3 3 3 3 3 3 3 3 4 4 4 4 3 3 3 4 4 4 4 4 4 4 3 3 3 3 2 1 0 1 1 1 2 2 2 2 2 2 2 3 3 4 4 4 4 3 3 3 3 3 3 3 3 3 3 3 3 4 3 3 4 4 4 4 4 4 4 4 5 5 5 5 5
5 5 4 4 4 4 4 4 4 4 4 4 4 3 3 3 3 3 3 3 3 4 4 4 4 4 3 3 3 4 4 4 4 4 4 4 4 3 3 3 2 2 1 1 2 2 2 2 3 3 3 3 3 3 3 3 4 4 3 3 3 3 3 3 3 3 3 3 3 3 3 3 3 4 4 4 4 3 4 4 4 4 5 5 5 5
5 5 5 5 4 4 4 4 5 5 5 5 4 4 3 3 4 4 3 3 4 4 4 4 4 4 3 3 3 3 3 3 4 4 4 4 4 3 3 3 3 3 2 2 2 3 3 3 4 5 5 5 4 4 3 3 3 3 3 3 3 3 3 3 3 3 3 3 3 3 3 3 3 3 3 4 4 4 4 4 4 4 5 5 5 5
5 5 5 5 5 5 5 5 5 6 6 5 5 5 4 4 3 3 3 3 4 4 4 4 4 4 4 4 3 3 3 3 3 3 4 4 4 4 4 4 4 3 3 3 3 3 3 4 5 7 8 8 7 6 4 4 3 3 3 3 3 3 3 3 2 3 3 3 3 4 3 3 3 3 3 3 4 4 4 4 4 4 4 4 5 5
5 5 5 5 5 5 5 5 6 6 6 6 5 5 5 4 4 3 3 3 4 4 4 4 4 4 4 4 4 4 4 3 3 3 4 4 4 4 4 4 4 4 3 3 3 3 3 2 3 5 8 10 11 9 6 4 4 3 3 3 3 3 3 3 2 2 3 3 3 4 4 3 3 3 3 3 3 4 4 4 4 4 4 4 4 5
Wind_Direction
135 138 141 144 145 150 164 166 160 151 144 137 129 118 102 92 85 79 73 76 85 98 106 120 132 137 138 137 136 135 133 130 126 122 118 114 110 105 101 96 92 87 83 79 75 72 69 67 65 63 61 57 52 47 41 35 31 28 26 28 30 34 39 45 53 62 72 79 83 86 88 89 88 85 83 79 75 70 66 61 54 44 32 20 9 360
139 134 140 150 151 152 160 167 163 156 148 143 139 134 129 120 108 91 76 69 69 74 84 104 129 140 142 141 140 139 137 133 129 125 121 117 113 109 105 100 96 91 86 83 79 77 74 74 72 69 66 62 56 50 42 35 30 25 23 24 25 28 32 38 44 51 60 67 72 76 79 81 84 85 85 83 78 72 66 58 50 40 29 16 6 358
145 139 146 155 156 156 156 166 164 156 147 143 141 140 138 129 117 99 83 72 65 59 55 55 105 136 142 144 144 144 141 137 132 128 124 121 117 113 108 104 99 94 90 86 83 81 79 79 78 76 73 68 62 55 46 38 31 26 22 22 23 26 31 37 42 48 54 60 65 69 71 75 78 82 84 82 79 73 66 56 47 36 25 13 2 354
149 148 152 152 155 157 153 156 154 148 139 135 133 131 127 117 105 90 77 78 76 69 54 39 50 97 131 145 148 148 145 140 135 132 129 125 120 116 111 106 102 97 93 89 86 84 82 82 81 79 77 73 67 61 53 44 36 29 24 22 23 27 33 39 44 49 54 58 61 64 67 70 73 76 78 78 76 73 67 58 47 36 23 10 359 352
158 155 152 149 149 146 138 135 131 126 120 120 118 112 103 95 91 87 79 80 82 77 63 46 41 50 83 146 152 150 147 142 138 134 131 127 122 118 113 109 104 100 96 93 89 86 84 83 82 81 78 75 71 66 58 51 43 36 30 27 27 30 36 43 49 53 57 59 61 64 66 68 70 70 70 71 71 69 67 58 47 35 22 9 359 351
160 154 151 153 147 134 121 125 126 124 120 115 107 98 88 89 91 94 93 89 86 82 74 58 46 38 30 151 155 150 146 143 139 135 132 127 123 119 114 111 107 103 99 95 92 88 85 83 82 81 79 76 73 68 63 57 51 45 40 36 35 37 42 48 54 57 60 60 62 64 66 68 68 69 67 66 65 63 60 54 44 33 23 12 1 352
152 148 149 146 133 120 120 134 143 145 144 131 116 103 94 91 89 89 89 90 93 94 91 77 56 36 16 89 149 147 144 142 139 136 132 128 124 120 116 112 108 105 101 97 93 89 86 84 83 83 81 78 74 69 64 59 55 51 48 46 46 47 51 55 60 62 64 64 65 66 68 70 72 72 69 66 62 57 52 45 37 30 23 15 4 352
149 150 154 146 132 122 128 147 158 161 159 150 140 132 123 111 100 92 86 83 92 106 112 97 76 49 22 34 135 144 144 143 142 139 135 131 125 120 116 112 109 106 103 99 95 91 88 86 86 85 84 81 76 71 65 58 54 51 48 49 51 54 57 62 66 70 72 72 73 74 75 79 80 80 77 72 65 57 49 39 32 26 21 13 2 352
153 157 162 158 150 145 148 158 167 169 167 161 157 153 148 142 134 121 106 93 92 105 132 128 113 86 45 42 122 140 140 142 141 137 135 132 127 121 116 113 109 106 103 100 95 92 89 88 88 89 89 86 81 75 66 57 51 47 45 47 49 53 58 63 68 73 79 82 84 86 87 90 91 91 90 84 76 66 54 42 32 23 16 6 357 349
155 157 159 160 157 155 158 159 159 162 170 167 166 163 159 157 153 148 142 134 125 122 144 136 129 120 101 88 122 134 134 126 112 100 96 97 102 107 105 103 103 103 100 97 94 90 87 87 88 91 92 90 86 80 69 58 48 42 40 43 45 49 53 58 65 71 80 86 92 97 101 104 105 106 105 100 93 84 70 53 37 23 11 1 354 350
156 156 152 149 146 144 145 139 137 137 148 148 154 164 170 168 165 161 161 160 158 156 150 119 115 120 130 127 130 132 131 118 102 86 76 73 78 85 87 88 91 94 96 95 91 85 79 79 83 87 92 93 92 86 75 61 45 35 33 38 41 44 46 50 57 66 75 86 95 104 111 116 120 120 119 116 110 103 92 74 52 30 12 1 357 355
158 155 148 143 138 128 114 109 113 125 147 151 160 174 187 187 181 173 169 168 167 164 157 133 99 79 96 126 134 135 135 124 115 104 86 75 73 75 81 85 88 91 96 96 92 85 76 73 74 80 89 94 94 88 72 53 35 22 23 33 38 40 40 41 45 53 66 79 93 103 115 122 127 129 129 124 118 113 104 89 68 42 20 9 3 2
155 150 145 145 148 148 137 129 136 153 175 184 187 188 188 186 185 181 173 166 162 159 154 144 127 88 41 48 116 143 147 137 129 122 112 92 76 71 82 95 98 99 105 111 108 98 83 80 80 84 88 99 105 103 81 43 3 347 359 29 44 43 40 33 32 37 47 67 83 101 113 122 127 128 127 122 118 112 105 92 74 51 29 17 11 8
156 151 149 157 162 165 162 161 166 176 187 195 198 194 181 168 165 165 154 143 140 142 145 146 143 135 111 53 337 176 165 150 142 132 122 102 79 62 72 108 115 120 136 142 129 111 98 103 113 122 129 152 150 150 176 197 243 267 248 194 136 99 66 37 23 20 28 46 74 96 110 118 122 123 121 117 113 107 101 91 75 55 36 24 17 14
163 163 167 173 174 174 174 177 183 188 192 194 190 170 137 139 147 153 144 133 130 133 142 147 148 148 153 166 191 220 216 174 159 148 140 119 93 63 45 127 133 138 158 152 133 120 112 143 168 168 169 168 161 165 230 212 212 216 208 192 175 154 130 113 45 334 326 60 106 115 115 119 120 120 119 115 111 106 100 91 78 60 42 29 21 17
172 173 180 183 182 181 180 182 188 193 194 182 164 144 140 150 159 165 157 144 141 145 155 159 161 164 172 168 178 203 225 197 176 161 152 136 118 93 317 189 162 153 156 153 139 130 133 155 172 172 161 125 51 338 313 297 234 206 199 185 169 153 140 156 186 201 200 190 176 157 140 131 126 123 121 118 114 110 104 97 85 69 51 35 26 20
180 184 190 191 189 186 182 182 188 191 185 164 154 156 162 165 168 169 161 149 149 159 171 172 173 176 179 171 176 190 210 206 188 169 160 145 131 118 289 251 193 162 152 153 143 136 144 159 169 167 140 89 17 325 305 291 254 211 189 174 160 149 141 168 209 207 194 182 175 168 157 146 138 132 128 126 123 120 116 110 100 85 66 46 33 25
188 191 198 200 196 189 179 178 182 182 167 154 156 164 169 168 168 166 162 156 160 170 179 183 186 187 182 177 170 171 187 200 192 175 169 154 137 124 188 261 229 179 157 154 149 144 150 155 153 129 78 357 331 312 297 283 251 202 176 162 152 145 144 182 223 214 190 173 167 162 158 153 148 142 139 137 136 134 132 126 118 106 86 63 44 32
197 198 202 208 204 192 177 175 174 171 164 162 163 165 167 168 168 167 167 166 172 179 185 189 194 197 195 171 146 141 167 192 193 185 185 167 143 131 163 216 216 194 171 159 149 144 148 147 114 35 4 326 309 297 286 270 233 185 163 156 150 148 153 198 234 215 174 158 154 153 152 150 148 145 145 143 143 144 144 141 138 130 116 93 64 43
206 206 207 211 204 191 180 180 178 176 173 166 163 163 169 171 173 175 175 177 182 187 190 194 196 194 180 130 116 122 153 180 192 193 194 171 144 136 161 196 201 192 182 159 143 138 153 162 164 190 281 286 283 279 270 250 213 176 159 153 152 156 165 189 209 190 148 139 139 139 138 137 136 135 133 132 134 138 139 144 145 142 137 124 99 64
215 215 213 210 202 193 188 185 178 171 168 160 159 164 172 174 178 182 182 181 184 188 193 198 191 168 123 109 113 127 154 175 186 190 189 174 152 143 156 195 206 199 184 156 142 142 162 177 182 189 216 262 270 267 257 233 197 171 161 157 157 160 168 178 177 158 135 130 130 129 125 124 121 117 112 108 105 101 105 117 124 130 130 124 112 92
226 221 214 211 209 206 200 181 166 160 158 156 161 169 175 177 181 184 181 180 182 186 193 184 128 82 72 84 97 113 146 185 194 188 173 184 170 154 144 186 212 210 190 154 143 147 167 183 191 194 202 257 271 268 255 222 192 172 165 164 164 165 168 169 164 152 138 133 131 129 127 124 120 115 110 101 88 75 66 69 76 86 89 97 97 89
238 231 214 202 202 206 196 150 145 148 155 164 174 180 178 179 183 183 179 179 177 168 143 102 82 74 73 82 91 102 115 291 259 215 178 191 174 149 136 168 202 212 194 148 139 146 167 185 193 196 196 255 269 266 252 218 191 176 171 169 168 167 166 163 157 149 141 138 138 137 137 135 133 130 126 118 105 83 54 50 51 51 51 50 29 358
248 250 228 171 151 138 122 126 136 146 158 167 172 171 154 160 163 162 155 152 139 122 108 102 100 99 95 99 107 117 133 202 284 253 201 190 160 131 130 165 192 200 181 138 130 143 171 181 183 182 182 234 261 258 240 210 189 177 173 171 170 169 167 163 159 152 146 143 142 142 143 143 143 142 142 141 141 137 123 67 42 33 16 347 341 339
285 315 26 103 127 136 140 137 142 148 154 150 139 120 100 95 91 90 91 101 108 114 121 126 128 127 120 123 130 139 151 164 245 256 219 177 135 119 130 172 194 193 161 129 126 146 183 179 171 166 170 189 246 249 222 195 182 175 172 171 170 170 170 167 164 159 152 148 144 143 143 142 143 144 145 148 157 169 187 206 234 256 265 285 321 335
49 54 71 107 130 141 144 141 144 147 149 146 141 134 124 113 107 104 106 115 125 134 141 148 151 149 137 141 149 153 152 163 212 252 248 172 136 129 137 177 203 197 150 128 131 160 198 177 162 154 152 139 164 204 180 168 165 165 166 166 166 167 168 166 164 161 156 152 149 148 146 146 149 152 155 164 175 186 199 213 228 245 250 254 264 294
87 94 106 120 131 137 139 140 143 145 148 147 146 143 139 134 131 133 141 148 152 155 158 163 160 154 148 159 161 156 151 163 191 231 260 211 152 140 140 166 191 192 155 132 133 155 204 178 158 147 140 119 96 83 81 97 117 134 143 146 150 152 153 153 152 152 150 149 149 150 152 160 164 171 176 186 194 200 206 210 217 226 234 241 236 221
96 102 110 118 124 129 132 137 142 145 148 148 148 149 150 149 151 156 162 161 161 164 169 170 165 160 161 168 159 148 152 171 184 201 240 236 178 140 130 154 176 185 165 134 128 141 196 188 163 147 139 125 106 86 68 65 70 81 96 109 115 119 120 120 121 121 123 126 131 145 163 177 190 195 200 206 211 214 215 214 213 216 220 231 233 227
96 100 103 108 114 119 125 132 138 143 147 148 151 154 160 163 165 165 160 158 161 168 175 174 168 159 154 148 139 139 170 187 183 181 201 216 178 132 123 150 170 179 169 143 140 155 185 185 174 160 148 135 128 118 99 81 73 75 85 89 92 92 89 81 77 76 72 70 77 245 247 244 242 241 241 240 237 235 231 226 223 221 217 223 230 236
100 101 102 105 110 116 122 128 133 139 143 145 148 151 158 166 164 155 146 154 163 170 173 168 158 146 139 136 140 161 195 185 173 169 185 198 176 139 134 155 171 180 181 166 163 168 174 170 169 166 157 150 149 145 135 120 107 100 104 101 102 96 78 60 48 34 11 340 301 279 268 266 266 267 267 267 262 257 250 245 242 238 229 229 232 237
103 101 101 105 108 113 117 121 125 128 132 131 128 121 104 97 113 130 139 157 167 172 168 159 152 148 151 154 167 181 190 164 158 164 184 196 174 141 146 159 169 182 207 207 195 177 162 155 157 161 165 169 170 168 161 154 148 145 161 166 154 129 92 61 30 344 311 294 282 276 273 273 273 273 274 273 271 267 261 255 252 250 246 242 241 242
102 99 98 99 99 98 99 101 105 109 112 108 98 85 74 74 84 107 133 156 167 169 161 154 153 159 168 179 185 182 147 135 152 168 185 186 158 133 152 159 163 172 209 262 279 271 156 139 141 153 170 180 183 182 178 177 177 187 219 229 220 196 142 176 248 258 251 254 258 264 269 277 279 279 278 277 274 269 264 258 255 254 251 248 248 248
109 107 105 102 98 95 93 96 98 98 97 92 87 82 79 78 80 85 93 105 124 140 145 149 155 164 176 183 177 138 99 120 156 173 184 175 149 135 155 160 161 163 175 236 291 312 359 94 119 142 167 181 187 188 186 186 186 193 216 238 238 228 201 222 239 246 243 242 239 238 244 261 271 274 277 277 274 270 266 261 257 255 253 252 252 252
122 121 120 117 112 108 104 102 100 97 92 88 85 83 83 82 80 77 70 62 56 62 91 130 149 162 172 174 161 131 110 127 158 174 183 170 149 141 156 163 163 163 167 185 214 259 24 83 115 140 156 171 182 190 191 189 186 186 204 235 246 247 232 238 251 256 254 250 242 236 231 238 245 251 260 263 264 264 264 262 260 259 260 261 261 259
133 132 131 130 127 122 117 110 104 98 91 86 82 80 79 80 78 75 68 61 55 52 52 63 90 133 162 173 174 162 136 137 157 171 180 168 150 143 155 166 167 166 169 178 184 185 162 143 146 153 152 161 171 182 186 182 179 179 191 221 240 251 250 254 263 267 265 259 251 244 235 234 236 239 244 250 257 263 269 269 269 269 270 270 271 269
144 143 144 143 139 135 129 121 113 105 96 88 82 77 77 77 76 73 68 64 63 62 59 54 49 44 37 30 161 144 125 132 152 167 176 170 158 151 155 164 168 170 172 176 181 182 173 161 161 167 172 170 167 165 163 164 170 179 193 206 218 225 228 231 246 257 261 257 250 243 235 234 236 238 239 247 260 270 278 279 280 279 279 280 280 279
152 152 152 151 147 142 136 129 123 115 108 102 95 87 81 79 77 75 71 67 66 68 70 66 59 49 40 34 38 59 95 127 149 163 171 169 167 161 150 155 165 174 178 175 175 175 171 161 163 174 195 195 175 152 144 153 167 183 195 199 203 208 207 203 213 230 244 248 247 241 231 228 230 232 230 238 250 261 268 271 271 272 278 280 281 280
158 156 156 155 153 148 142 136 130 123 115 111 103 95 87 83 81 79 77 71 70 70 73 71 67 59 49 50 52 60 80 116 139 152 160 161 165 159 138 141 159 175 185 177 173 171 174 173 176 180 192 195 177 147 138 151 167 181 188 188 194 202 204 198 202 212 227 236 239 237 230 223 221 223 224 225 230 236 242 242 243 248 260 265 269 271
164 161 160 160 158 154 147 138 128 118 110 105 102 99 95 91 86 83 78 73 69 68 69 72 73 67 57 56 57 62 68 85 104 121 133 139 148 148 133 138 149 159 168 173 175 177 183 189 191 189 185 180 168 155 145 158 171 177 174 179 192 202 204 198 199 206 217 226 231 231 225 216 215 218 222 222 227 231 233 232 232 234 243 251 257 260
169 166 164 161 155 144 132 119 112 109 109 110 110 109 105 100 93 86 81 76 73 72 76 80 82 79 71 65 62 62 63 68 77 85 86 71 53 85 119 128 135 139 142 152 169 183 192 200 204 204 197 182 166 157 155 165 172 175 173 184 196 198 189 188 191 198 206 218 226 230 227 217 216 220 224 224 226 229 232 233 233 234 239 248 254 257
172 169 164 153 136 112 93 93 98 107 116 121 123 121 116 112 107 101 96 92 89 90 96 102 103 98 88 78 71 67 62 61 66 70 67 29 9 9 60 102 117 126 135 142 155 177 194 198 199 201 210 213 199 185 179 171 170 174 189 211 217 201 174 183 187 190 195 210 222 231 234 228 225 224 226 226 226 227 229 236 240 242 241 242 246 251
175 170 157 141 126 112 101 103 108 115 124 129 131 131 129 129 129 129 129 129 129 131 142 146 142 134 125 115 103 89 73 65 68 75 80 37 14 14 52 86 104 116 130 140 153 169 191 199 204 203 200 206 222 229 224 191 178 181 202 226 245 257 237 200 185 179 193 205 214 222 231 231 228 226 226 228 227 225 224 230 236 239 240 237 235 237
172 155 133 125 122 121 123 125 128 132 138 140 138 134 133 139 146 149 149 151 153 157 163 168 165 158 149 141 132 120 104 93 89 94 103 89 37 12 35 77 101 121 138 150 159 166 178 200 215 218 210 207 220 234 244 225 202 194 206 217 225 234 239 193 168 164 190 204 210 214 220 225 227 228 229 233 235 235 229 230 231 234 237 237 233 230
142 120 112 115 120 126 133 139 144 149 154 152 146 139 136 150 160 163 161 161 160 162 166 174 176 170 160 152 145 137 127 119 109 101 99 106 102 67 25 65 106 138 162 170 172 171 173 193 204 209 202 203 215 228 237 236 225 213 205 203 209 219 234 206 165 163 185 199 204 208 211 217 222 228 233 238 240 239 235 233 232 231 234 236 235 232
120 117 122 128 137 145 151 152 154 156 159 155 149 144 143 157 169 174 174 168 165 164 167 174 177 177 171 161 153 146 142 136 128 119 112 115 120 127 153 168 170 178 195 202 200 193 188 194 193 190 180 195 211 223 229 232 232 225 211 200 205 217 233 232 213 196 199 201 201 199 197 200 209 224 235 239 239 237 233 231 230 229 229 231 232 232
131 136 141 146 153 158 159 156 155 157 161 157 151 146 146 157 170 179 181 173 168 166 169 178 183 185 179 167 160 156 155 153 148 142 134 135 142 151 165 175 193 216 228 235 239 242 241 232 211 191 180 198 212 221 224 226 230 230 220 204 203 212 225 227 224 219 216 211 203 190 176 180 197 219 234 238 239 238 234 232 230 228 227 227 228 230
149 151 152 155 158 161 159 156 158 163 168 163 156 149 148 158 170 179 181 175 169 166 169 181 191 195 187 172 166 165 166 164 161 157 152 150 153 155 157 154 156 189 253 256 257 260 264 274 266 245 220 218 221 222 221 219 222 225 225 213 209 212 220 221 218 215 213 215 205 182 160 173 198 221 233 238 241 242 239 234 232 229 228 227 227 228
159 159 158 159 161 162 160 162 168 174 177 169 159 151 152 165 174 177 175 173 171 169 171 184 194 198 190 176 171 172 173 168 164 161 159 156 156 157 157 152 152 163 190 216 234 244 247 250 249 245 240 237 236 234 226 217 216 218 222 218 217 220 226 223 214 205 202 208 199 181 169 187 206 222 232 238 241 242 240 235 230 226 225 225 226 227
163 163 162 163 166 168 169 172 178 182 182 173 162 155 157 170 178 179 175 175 176 177 179 187 192 195 189 177 174 175 177 171 164 158 156 155 156 158 160 160 162 166 175 189 204 218 227 229 228 228 229 232 237 241 243 232 222 217 217 218 221 226 232 227 215 202 195 190 181 178 194 211 222 229 237 243 247 247 246 242 235 228 223 222 223 225
166 166 166 170 173 176 175 178 183 186 185 175 166 159 158 167 174 179 177 181 184 186 187 190 192 193 189 178 173 174 181 177 169 162 158 154 157 161 166 168 171 175 179 186 195 204 211 216 218 218 218 219 223 229 238 238 233 225 218 218 221 225 230 230 219 204 194 183 172 172 192 214 227 232 235 243 249 253 254 250 243 235 225 220 220 223
168 169 171 175 178 180 179 181 185 187 185 176 167 161 159 163 168 174 178 186 191 193 192 193 195 195 193 181 175 175 183 183 182 176 166 157 159 166 172 175 178 182 186 190 195 201 208 216 216 212 207 207 210 215 224 229 231 229 224 219 216 217 222 226 217 204 196 190 178 173 181 201 213 219 221 232 243 251 254 250 245 237 224 217 217 220